| time (UTC) | temp C | wind direction | speed KPH | gust KPH | rain 1hr cm | rain 24hr cm | rain mn cm | humidity % | barometer mb |
| 20260505095030 | 22 | 0 | 0.0 | 1.6 | 0.00 | 0.00 | 0.00 | 83 | 1015.6 |
| 20260505094541 | 22 | 0 | 0.0 | 1.6 | 0.00 | 0.00 | 0.00 | 83 | 1015.7 |
| 20260505094030 | 22 | 119 | 0.0 | 1.6 | 0.00 | 0.00 | 0.00 | 82 | 1015.7 |
| 20260505093532 | 22 | 0 | 0.0 | 0.0 | 0.00 | 0.00 | 0.00 | 82 | 1015.6 |
| 20260505093053 | 22 | 0 | 0.0 | 0.0 | 0.00 | 0.00 | 0.00 | 83 | 1015.6 |
| 20260505092532 | 22 | 0 | 0.0 | 3.2 | 0.00 | 0.00 | 0.00 | 83 | 1015.4 |
| 20260505092029 | 23 | 0 | 0.0 | 3.2 | 0.00 | 0.00 | 0.00 | 83 | 1015.4 |
| 20260505091546 | 23 | 0 | 0.0 | 0.0 | 0.00 | 0.00 | 0.00 | 82 | 1015.3 |
| 20260505091029 | 23 | 0 | 0.0 | 8.0 | 0.00 | 0.00 | 0.00 | 82 | 1015.3 |
| 20260505090531 | 23 | 0 | 0.0 | 8.0 | 0.00 | 0.00 | 0.00 | 83 | 1015.2 |
| 20260505090045 | 23 | 117 | 4.8 | 8.0 | 0.00 | 0.00 | 0.00 | 82 | 1015.2 |
| 20260505085530 | 23 | 0 | 0.0 | 1.6 | 0.00 | 0.00 | 0.00 | 82 | 1015.3 |
| 20260505085030 | 23 | 0 | 0.0 | 6.4 | 0.00 | 0.00 | 0.00 | 82 | 1015.3 |
| 20260505084543 | 23 | 0 | 0.0 | 6.4 | 0.00 | 0.00 | 0.00 | 82 | 1015.2 |
| 20260505084030 | 23 | 0 | 0.0 | 6.4 | 0.00 | 0.00 | 0.00 | 82 | 1015.2 |
| 20260505083530 | 23 | 0 | 0.0 | 1.6 | 0.00 | 0.00 | 0.00 | 82 | 1015.1 |
| 20260505083045 | 23 | 0 | 0.0 | 4.8 | 0.00 | 0.00 | 0.00 | 82 | 1015.1 |
| 20260505082530 | 23 | 0 | 0.0 | 6.4 | 0.00 | 0.00 | 0.00 | 82 | 1015.1 |
| 20260505082030 | 23 | 0 | 1.6 | 6.4 | 0.00 | 0.00 | 0.00 | 82 | 1015.2 |
| 20260505081558 | 23 | 0 | 0.0 | 3.2 | 0.00 | 0.00 | 0.00 | 82 | 1015.2 |
| 20260505081030 | 23 | 0 | 0.0 | 1.6 | 0.00 | 0.00 | 0.00 | 82 | 1015.3 |
| 20260505080531 | 23 | 0 | 0.0 | 1.6 | 0.00 | 0.00 | 0.00 | 82 | 1015.3 |
| 20260505080057 | 23 | 0 | 0.0 | 1.6 | 0.00 | 0.00 | 0.00 | 82 | 1015.4 |
| 20260505075529 | 23 | 0 | 0.0 | 1.6 | 0.00 | 0.00 | 0.00 | 82 | 1015.4 |
| 20260505075029 | 23 | 0 | 0.0 | 1.6 | 0.00 | 0.00 | 0.00 | 82 | 1015.3 |
| 20260505074543 | 23 | 0 | 0.0 | 3.2 | 0.00 | 0.00 | 0.00 | 82 | 1015.2 |
| 20260505074029 | 23 | 0 | 0.0 | 6.4 | 0.00 | 0.00 | 0.00 | 82 | 1015.2 |
| 20260505073529 | 23 | 0 | 0.0 | 6.4 | 0.00 | 0.00 | 0.00 | 82 | 1015.2 |
| 20260505073042 | 23 | 0 | 3.2 | 8.0 | 0.00 | 0.00 | 0.00 | 82 | 1015.2 |
| 20260505072529 | 23 | 163 | 4.8 | 8.0 | 0.00 | 0.00 | 0.00 | 82 | 1015.2 |
| 20260505072031 | 23 | 127 | 4.8 | 8.0 | 0.00 | 0.00 | 0.00 | 82 | 1015.2 |
| 20260505071552 | 23 | 360 | 0.0 | 3.2 | 0.00 | 0.00 | 0.00 | 82 | 1015.3 |
| 20260505071032 | 23 | 0 | 0.0 | 3.2 | 0.00 | 0.00 | 0.00 | 82 | 1015.3 |
| 20260505070530 | 23 | 119 | 0.0 | 4.8 | 0.00 | 0.00 | 0.00 | 81 | 1015.3 |
| 20260505070045 | 23 | 0 | 0.0 | 6.4 | 0.00 | 0.00 | 0.00 | 81 | 1015.3 |
| 20260505065614 | 23 | 0 | 0.0 | 6.4 | 0.00 | 0.00 | 0.00 | 81 | 1015.4 |
| 20260505065029 | 23 | 0 | 0.0 | 3.2 | 0.00 | 0.00 | 0.00 | 81 | 1015.3 |
| 20260505064546 | 23 | 46 | 0.0 | 4.8 | 0.00 | 0.00 | 0.00 | 81 | 1015.4 |
| 20260505064031 | 23 | 0 | 0.0 | 4.8 | 0.00 | 0.00 | 0.00 | 80 | 1015.4 |
| 20260505063530 | 23 | 0 | 0.0 | 3.2 | 0.00 | 0.00 | 0.00 | 80 | 1015.4 |
| 20260505063049 | 23 | 0 | 0.0 | 3.2 | 0.00 | 0.00 | 0.00 | 80 | 1015.5 |
| 20260505062530 | 23 | 60 | 0.0 | 3.2 | 0.00 | 0.00 | 0.00 | 80 | 1015.4 |
| 20260505062031 | 23 | 0 | 0.0 | 3.2 | 0.00 | 0.00 | 0.00 | 80 | 1015.4 |
| 20260505061546 | 23 | 0 | 0.0 | 1.6 | 0.00 | 0.00 | 0.00 | 79 | 1015.5 |
| 20260505061029 | 23 | 0 | 0.0 | 4.8 | 0.00 | 0.00 | 0.00 | 79 | 1015.6 |
| 20260505060531 | 23 | 0 | 0.0 | 4.8 | 0.00 | 0.00 | 0.00 | 79 | 1015.6 |
| 20260505060045 | 24 | 0 | 0.0 | 3.2 | 0.00 | 0.00 | 0.00 | 79 | 1015.5 |
| 20260505055531 | 24 | 0 | 0.0 | 4.8 | 0.00 | 0.00 | 0.00 | 79 | 1015.5 |
| 20260505055029 | 24 | 139 | 1.6 | 4.8 | 0.00 | 0.00 | 0.00 | 79 | 1015.6 |
| 20260505054551 | 24 | 0 | 1.6 | 4.8 | 0.00 | 0.00 | 0.00 | 79 | 1015.6 |
| 20260505054032 | 24 | 0 | 0.0 | 3.2 | 0.00 | 0.00 | 0.00 | 79 | 1015.7 |
| 20260505053529 | 24 | 0 | 0.0 | 3.2 | 0.00 | 0.00 | 0.00 | 78 | 1015.7 |
| 20260505053048 | 24 | 0 | 0.0 | 1.6 | 0.00 | 0.00 | 0.00 | 78 | 1015.8 |
| 20260505052533 | 24 | 129 | 0.0 | 4.8 | 0.00 | 0.00 | 0.00 | 78 | 1015.9 |
| 20260505052033 | 24 | 0 | 0.0 | 4.8 | 0.00 | 0.00 | 0.00 | 78 | 1016.0 |
| 20260505051545 | 24 | 152 | 0.0 | 4.8 | 0.00 | 0.00 | 0.00 | 78 | 1016.0 |
| 20260505051032 | 25 | 0 | 1.6 | 4.8 | 0.00 | 0.00 | 0.00 | 78 | 1016.1 |
| 20260505050529 | 25 | 151 | 1.6 | 4.8 | 0.00 | 0.00 | 0.00 | 78 | 1016.0 |
| 20260505041546 | 25 | 0 | 0.0 | 3.2 | 0.00 | 0.00 | 0.00 | 77 | 1016.5 |
| 20260505041030 | 25 | 0 | 0.0 | 3.2 | 0.00 | 0.00 | 0.00 | 77 | 1016.5 |
| 20260505040530 | 25 | 0 | 0.0 | 4.8 | 0.00 | 0.00 | 0.00 | 77 | 1016.5 |
| 20260505040045 | 25 | 121 | 0.0 | 4.8 | 0.00 | 0.00 | 0.00 | 77 | 1016.4 |
| 20260505035529 | 25 | 113 | 0.0 | 4.8 | 0.00 | 0.00 | 0.00 | 77 | 1016.4 |
| 20260505035029 | 25 | 111 | 1.6 | 4.8 | 0.00 | 0.00 | 0.00 | 77 | 1016.5 |
| 20260505034547 | 25 | 122 | 0.0 | 4.8 | 0.00 | 0.00 | 0.00 | 77 | 1016.5 |
| 20260505034029 | 25 | 121 | 0.0 | 8.0 | 0.00 | 0.00 | 0.00 | 77 | 1016.6 |
| 20260505033530 | 25 | 0 | 3.2 | 8.0 | 0.00 | 0.00 | 0.00 | 77 | 1016.6 |
| 20260505033041 | 25 | 132 | 4.8 | 9.7 | 0.00 | 0.00 | 0.00 | 77 | 1016.7 |
| 20260505032532 | 25 | 360 | 4.8 | 9.7 | 0.00 | 0.00 | 0.00 | 78 | 1016.7 |
| 20260505032030 | 25 | 112 | 1.6 | 9.7 | 0.00 | 0.00 | 0.00 | 77 | 1016.8 |
| 20260505031551 | 25 | 137 | 3.2 | 9.7 | 0.00 | 0.00 | 0.00 | 78 | 1016.7 |
| 20260505031034 | 25 | 107 | 4.8 | 9.7 | 0.00 | 0.00 | 0.00 | 78 | 1016.8 |
| 20260505030530 | 25 | 117 | 1.6 | 6.4 | 0.00 | 0.00 | 0.00 | 78 | 1016.9 |
| 20260505030045 | 26 | 0 | 0.0 | 6.4 | 0.00 | 0.00 | 0.00 | 78 | 1016.8 |
| 20260505025532 | 26 | 117 | 0.0 | 6.4 | 0.00 | 0.00 | 0.00 | 77 | 1016.7 |
| 20260505025034 | 26 | 360 | 0.0 | 6.4 | 0.00 | 0.00 | 0.00 | 77 | 1016.7 |
| 20260505024542 | 26 | 119 | 3.2 | 6.4 | 0.00 | 0.00 | 0.00 | 77 | 1016.8 |
| 20260505024031 | 26 | 360 | 1.6 | 6.4 | 0.00 | 0.00 | 0.00 | 77 | 1016.8 |
| 20260505023531 | 26 | 0 | 0.0 | 6.4 | 0.00 | 0.00 | 0.00 | 77 | 1016.7 |
| 20260505023051 | 26 | 0 | 1.6 | 6.4 | 0.00 | 0.00 | 0.00 | 77 | 1016.7 |
| 20260505022529 | 26 | 144 | 0.0 | 6.4 | 0.00 | 0.00 | 0.00 | 77 | 1016.7 |
| 20260505022032 | 26 | 161 | 1.6 | 6.4 | 0.00 | 0.00 | 0.00 | 77 | 1016.6 |
| 20260505021544 | 26 | 360 | 1.6 | 4.8 | 0.00 | 0.00 | 0.00 | 76 | 1016.5 |
| 20260505021030 | 27 | 0 | 0.0 | 3.2 | 0.00 | 0.00 | 0.00 | 76 | 1016.6 |
| 20260505020529 | 27 | 134 | 0.0 | 4.8 | 0.00 | 0.00 | 0.00 | 76 | 1016.6 |
| 20260505020043 | 27 | 0 | 0.0 | 4.8 | 0.00 | 0.00 | 0.00 | 76 | 1016.5 |
| 20260505015530 | 27 | 0 | 0.0 | 4.8 | 0.00 | 0.00 | 0.00 | 76 | 1016.4 |
| 20260505015029 | 27 | 0 | 0.0 | 4.8 | 0.00 | 0.00 | 0.00 | 76 | 1016.4 |
| 20260505014552 | 27 | 0 | 0.0 | 3.2 | 0.00 | 0.00 | 0.00 | 76 | 1016.3 |
| 20260505014029 | 27 | 172 | 0.0 | 6.4 | 0.00 | 0.00 | 0.00 | 76 | 1016.3 |
| 20260505013531 | 27 | 172 | 1.6 | 6.4 | 0.00 | 0.00 | 0.00 | 76 | 1016.3 |
| 20260505013046 | 27 | 169 | 3.2 | 6.4 | 0.00 | 0.00 | 0.00 | 76 | 1016.3 |
| 20260505012532 | 27 | 360 | 3.2 | 9.7 | 0.00 | 0.00 | 0.00 | 75 | 1016.2 |
| 20260505012030 | 27 | 117 | 3.2 | 9.7 | 0.00 | 0.00 | 0.00 | 75 | 1016.1 |
| 20260505011544 | 27 | 360 | 4.8 | 8.0 | 0.00 | 0.00 | 0.00 | 74 | 1016.2 |
| 20260505011034 | 27 | 171 | 3.2 | 8.0 | 0.00 | 0.00 | 0.00 | 73 | 1016.1 |
| 20260505010529 | 27 | 174 | 3.2 | 8.0 | 0.00 | 0.00 | 0.00 | 72 | 1016.0 |
| 20260505010105 | 27 | 360 | 3.2 | 6.4 | 0.00 | 0.00 | 0.00 | 72 | 1016.0 |
| 20260505005529 | 27 | 360 | 3.2 | 4.8 | 0.00 | 0.00 | 0.00 | 72 | 1016.0 |
| 20260505005031 | 27 | 186 | 1.6 | 4.8 | 0.00 | 0.00 | 0.00 | 72 | 1015.9 |
| 20260505004543 | 27 | 186 | 1.6 | 8.0 | 0.00 | 0.00 | 0.00 | 72 | 1015.9 |
| 20260505004029 | 27 | 186 | 3.2 | 8.0 | 0.00 | 0.00 | 0.00 | 72 | 1015.7 |
| 20260505003529 | 27 | 185 | 3.2 | 8.0 | 0.00 | 0.00 | 0.00 | 73 | 1015.7 |
| 20260505003046 | 27 | 165 | 3.2 | 8.0 | 0.00 | 0.00 | 0.00 | 73 | 1015.6 |
| 20260505002529 | 27 | 217 | 3.2 | 6.4 | 0.00 | 0.00 | 0.00 | 73 | 1015.6 |
| 20260505002031 | 27 | 194 | 1.6 | 6.4 | 0.00 | 0.00 | 0.00 | 74 | 1015.5 |
| 20260505001543 | 27 | 0 | 1.6 | 6.4 | 0.00 | 0.00 | 0.00 | 74 | 1015.5 |
| 20260505001028 | 27 | 208 | 3.2 | 8.0 | 0.00 | 0.00 | 0.00 | 74 | 1015.4 |
| 20260505000530 | 27 | 360 | 3.2 | 8.0 | 0.00 | 0.00 | 0.00 | 75 | 1015.4 |
| 20260505000049 | 27 | 146 | 1.6 | 4.8 | 0.00 | 0.00 | 0.00 | 75 | 1015.3 |
| 20260504235534 | 28 | 132 | 1.6 | 6.4 | 0.00 | 0.00 | 0.00 | 76 | 1015.3 |
| 20260504235032 | 28 | 130 | 1.6 | 6.4 | 0.00 | 0.00 | 0.00 | 76 | 1015.2 |
| 20260504234545 | 28 | 0 | 1.6 | 9.7 | 0.00 | 0.00 | 0.00 | 76 | 1015.2 |
| 20260504234030 | 28 | 197 | 4.8 | 9.7 | 0.00 | 0.00 | 0.00 | 76 | 1015.1 |
| 20260504233529 | 28 | 360 | 6.4 | 9.7 | 0.00 | 0.00 | 0.00 | 76 | 1015.1 |
| 20260504233042 | 28 | 215 | 4.8 | 17.7 | 0.00 | 0.00 | 0.00 | 76 | 1015.1 |
| 20260504232530 | 28 | 214 | 8.0 | 17.7 | 0.00 | 0.00 | 0.00 | 75 | 1015.2 |
| 20260504232029 | 28 | 360 | 6.4 | 16.1 | 0.00 | 0.00 | 0.00 | 75 | 1015.1 |
| 20260504231547 | 29 | 360 | 6.4 | 12.9 | 0.00 | 0.00 | 0.00 | 74 | 1015.1 |
| 20260504231029 | 29 | 211 | 4.8 | 12.9 | 0.00 | 0.00 | 0.00 | 74 | 1014.9 |
| 20260504230531 | 29 | 191 | 6.4 | 12.9 | 0.00 | 0.00 | 0.00 | 73 | 1014.9 |
| 20260504230046 | 29 | 360 | 6.4 | 12.9 | 0.00 | 0.00 | 0.00 | 72 | 1014.9 |
| 20260504225533 | 29 | 150 | 6.4 | 16.1 | 0.00 | 0.00 | 0.00 | 69 | 1014.7 |
| 20260504225030 | 29 | 360 | 8.0 | 16.1 | 0.00 | 0.00 | 0.00 | 66 | 1014.5 |
| 20260504224544 | 28 | 360 | 6.4 | 17.7 | 0.00 | 0.00 | 0.00 | 68 | 1014.5 |
| 20260504224031 | 28 | 157 | 8.0 | 17.7 | 0.00 | 0.00 | 0.00 | 69 | 1014.4 |
| 20260504223534 | 28 | 360 | 6.4 | 16.1 | 0.00 | 0.00 | 0.00 | 69 | 1014.3 |
| 20260504223059 | 28 | 143 | 8.0 | 16.1 | 0.00 | 0.00 | 0.00 | 71 | 1014.1 |
| 20260504222532 | 28 | 128 | 4.8 | 11.3 | 0.00 | 0.00 | 0.00 | 72 | 1014.1 |
| 20260504222032 | 29 | 136 | 1.6 | 17.7 | 0.00 | 0.00 | 0.00 | 76 | 1014.1 |
| 20260504221558 | 29 | 0 | 8.0 | 17.7 | 0.00 | 0.00 | 0.00 | 77 | 1014.0 |
| 20260504221030 | 29 | 13 | 6.4 | 16.1 | 0.00 | 0.00 | 0.00 | 77 | 1014.0 |
| 20260504220531 | 29 | 15 | 9.7 | 17.7 | 0.00 | 0.00 | 0.00 | 77 | 1013.9 |
| 20260504220046 | 29 | 14 | 9.7 | 19.3 | 0.00 | 0.00 | 0.00 | 77 | 1013.8 |
| 20260504215531 | 29 | 5 | 11.3 | 19.3 | 0.00 | 0.00 | 0.00 | 76 | 1013.7 |
| 20260504215030 | 29 | 5 | 9.7 | 17.7 | 0.00 | 0.00 | 0.00 | 76 | 1013.6 |
| 20260504214543 | 29 | 15 | 9.7 | 17.7 | 0.00 | 0.00 | 0.00 | 76 | 1013.6 |
| 20260504214030 | 29 | 18 | 8.0 | 16.1 | 0.00 | 0.00 | 0.00 | 77 | 1013.5 |
| 20260504213530 | 29 | 27 | 9.7 | 19.3 | 0.00 | 0.00 | 0.00 | 77 | 1013.4 |
| 20260504213058 | 29 | 352 | 12.9 | 19.3 | 0.00 | 0.00 | 0.00 | 76 | 1013.5 |
| 20260504212530 | 29 | 5 | 9.7 | 20.9 | 0.00 | 0.00 | 0.00 | 76 | 1013.4 |
| 20260504212032 | 29 | 344 | 12.9 | 20.9 | 0.00 | 0.00 | 0.00 | 76 | 1013.4 |
| 20260504211629 | 29 | 360 | 12.9 | 20.9 | 0.00 | 0.00 | 0.00 | 76 | 1013.4 |
| 20260504211029 | 29 | 25 | 9.7 | 20.9 | 0.00 | 0.00 | 0.00 | 76 | 1013.4 |
| 20260504210530 | 29 | 5 | 12.9 | 20.9 | 0.00 | 0.00 | 0.00 | 76 | 1013.4 |
| 20260504210046 | 30 | 360 | 11.3 | 22.5 | 0.00 | 0.00 | 0.00 | 76 | 1013.5 |
| 20260504205531 | 29 | 352 | 11.3 | 20.9 | 0.00 | 0.00 | 0.00 | 76 | 1013.5 |
| 20260504205031 | 29 | 5 | 9.7 | 17.7 | 0.00 | 0.00 | 0.00 | 76 | 1013.4 |
| 20260504204548 | 29 | 13 | 11.3 | 24.1 | 0.00 | 0.00 | 0.00 | 75 | 1013.4 |
| 20260504204031 | 29 | 352 | 12.9 | 27.4 | 0.00 | 0.00 | 0.00 | 75 | 1013.3 |
| 20260504203531 | 29 | 5 | 16.1 | 27.4 | 0.00 | 0.00 | 0.00 | 75 | 1013.3 |
| 20260504203049 | 29 | 352 | 14.5 | 24.1 | 0.00 | 0.00 | 0.00 | 75 | 1013.4 |
| 20260504202530 | 29 | 26 | 14.5 | 24.1 | 0.00 | 0.00 | 0.00 | 75 | 1013.3 |
| 20260504202030 | 29 | 5 | 12.9 | 22.5 | 0.00 | 0.00 | 0.00 | 75 | 1013.4 |
| 20260504201542 | 29 | 350 | 12.9 | 22.5 | 0.00 | 0.00 | 0.00 | 75 | 1013.4 |
| 20260504201030 | 30 | 340 | 14.5 | 24.1 | 0.00 | 0.00 | 0.00 | 74 | 1013.4 |
| 20260504200530 | 30 | 333 | 14.5 | 25.7 | 0.00 | 0.00 | 0.00 | 74 | 1013.4 |
| 20260504200046 | 30 | 348 | 16.1 | 25.7 | 0.00 | 0.00 | 0.00 | 74 | 1013.3 |
| 20260504195530 | 30 | 16 | 14.5 | 24.1 | 0.00 | 0.00 | 0.00 | 74 | 1013.3 |
| 20260504195030 | 30 | 9 | 14.5 | 22.5 | 0.00 | 0.00 | 0.00 | 74 | 1013.3 |
| 20260504194551 | 30 | 18 | 12.9 | 29.0 | 0.00 | 0.00 | 0.00 | 75 | 1013.4 |
| 20260504194030 | 30 | 5 | 14.5 | 29.0 | 0.00 | 0.00 | 0.00 | 75 | 1013.5 |
| 20260504193534 | 29 | 36 | 14.5 | 29.0 | 0.00 | 0.00 | 0.00 | 75 | 1013.5 |
| 20260504193048 | 29 | 17 | 16.1 | 27.4 | 0.00 | 0.00 | 0.00 | 75 | 1013.6 |
| 20260504192529 | 30 | 10 | 12.9 | 24.1 | 0.00 | 0.00 | 0.00 | 75 | 1013.6 |
| 20260504192032 | 30 | 22 | 14.5 | 25.7 | 0.00 | 0.00 | 0.00 | 75 | 1013.4 |
| 20260504191543 | 29 | 32 | 12.9 | 27.4 | 0.00 | 0.00 | 0.00 | 75 | 1013.5 |
| 20260504191031 | 29 | 36 | 16.1 | 27.4 | 0.00 | 0.00 | 0.00 | 74 | 1013.6 |
| 20260504190530 | 29 | 5 | 16.1 | 27.4 | 0.00 | 0.00 | 0.00 | 74 | 1013.5 |
| 20260504190050 | 30 | 5 | 14.5 | 30.6 | 0.00 | 0.00 | 0.00 | 74 | 1013.5 |
| 20260504185530 | 30 | 352 | 14.5 | 32.2 | 0.00 | 0.00 | 0.00 | 73 | 1013.5 |
| 20260504185035 | 30 | 27 | 16.1 | 32.2 | 0.00 | 0.00 | 0.00 | 73 | 1013.7 |
| 20260504184540 | 30 | 12 | 17.7 | 32.2 | 0.00 | 0.00 | 0.00 | 73 | 1013.6 |
| 20260504184033 | 30 | 5 | 16.1 | 29.0 | 0.00 | 0.00 | 0.00 | 73 | 1013.7 |
| 20260504183532 | 30 | 17 | 17.7 | 29.0 | 0.00 | 0.00 | 0.00 | 73 | 1013.9 |
| 20260504183045 | 30 | 5 | 16.1 | 27.4 | 0.00 | 0.00 | 0.00 | 73 | 1014.0 |
| 20260504182530 | 30 | 22 | 14.5 | 27.4 | 0.00 | 0.00 | 0.00 | 73 | 1014.1 |
| 20260504182029 | 30 | 42 | 16.1 | 29.0 | 0.00 | 0.00 | 0.00 | 74 | 1014.2 |
| 20260504181548 | 30 | 41 | 14.5 | 29.0 | 0.00 | 0.00 | 0.00 | 73 | 1014.2 |
| 20260504181036 | 30 | 38 | 14.5 | 27.4 | 0.00 | 0.00 | 0.00 | 74 | 1014.3 |
| 20260504180532 | 29 | 14 | 17.7 | 27.4 | 0.00 | 0.00 | 0.00 | 74 | 1014.3 |
| 20260504180049 | 30 | 347 | 17.7 | 25.7 | 0.00 | 0.00 | 0.00 | 74 | 1014.5 |
| 20260504175533 | 30 | 16 | 14.5 | 22.5 | 0.00 | 0.00 | 0.00 | 75 | 1014.6 |
| 20260504175030 | 29 | 38 | 16.1 | 25.7 | 0.00 | 0.00 | 0.00 | 74 | 1014.7 |
| 20260504174550 | 30 | 352 | 16.1 | 25.7 | 0.00 | 0.00 | 0.00 | 74 | 1014.8 |
| 20260504174029 | 29 | 323 | 17.7 | 25.7 | 0.00 | 0.00 | 0.00 | 74 | 1014.8 |
| 20260504173531 | 30 | 331 | 16.1 | 24.1 | 0.00 | 0.00 | 0.00 | 74 | 1014.9 |
| 20260504173045 | 30 | 344 | 14.5 | 22.5 | 0.00 | 0.00 | 0.00 | 74 | 1014.9 |
| 20260504172530 | 30 | 350 | 16.1 | 22.5 | 0.00 | 0.00 | 0.00 | 73 | 1014.9 |
| 20260504172030 | 30 | 348 | 9.7 | 25.7 | 0.00 | 0.00 | 0.00 | 73 | 1014.9 |
| 20260504171546 | 30 | 36 | 12.9 | 25.7 | 0.00 | 0.00 | 0.00 | 73 | 1014.9 |
| 20260504171031 | 30 | 55 | 14.5 | 25.7 | 0.00 | 0.00 | 0.00 | 73 | 1015.0 |
| 20260504170530 | 30 | 10 | 14.5 | 22.5 | 0.00 | 0.00 | 0.00 | 73 | 1015.0 |
| 20260504151030 | 28 | 340 | 14.5 | 22.5 | 0.00 | 0.00 | 0.00 | 74 | 1016.2 |
| 20260504150530 | 28 | 352 | 14.5 | 24.1 | 0.00 | 0.00 | 0.00 | 74 | 1016.1 |
| 20260504141033 | 30 | 22 | 12.9 | 22.5 | 0.00 | 0.00 | 0.00 | 70 | 1016.4 |
| 20260504140530 | 30 | 21 | 11.3 | 22.5 | 0.00 | 0.00 | 0.00 | 67 | 1016.3 |
| 20260504130529 | 28 | 36 | 11.3 | 27.4 | 0.00 | 0.00 | 0.00 | 68 | 1016.2 |
| 20260504110529 | 25 | 352 | 1.6 | 8.0 | 0.00 | 0.00 | 0.00 | 82 | 1016.4 |
| 20260504100529 | 23 | 0 | 3.2 | 6.4 | 0.00 | 0.00 | 0.00 | 82 | 1016.0 |